TimeCST,TemperatureF,Dew PointF,Humidity,Sea Level PressureIn,VisibilityMPH,Wind Direction,Wind SpeedMPH,Gust SpeedMPH,PrecipitationIn,Events,Conditions,WindDirDegrees,DateUTC
12:15 AM,37.4,32.0,81,30.35,10.0,Calm,Calm,-,N/A,,Clear,0,2012-11-17 06:15:00
12:35 AM,35.6,32.0,87,30.35,10.0,Calm,Calm,-,N/A,,Clear,0,2012-11-17 06:35:00
1:15 AM,33.8,32.0,93,30.35,10.0,Calm,Calm,-,N/A,,Clear,0,2012-11-17 07:15:00
1:35 AM,33.8,32.0,93,30.35,10.0,North,3.5,-,N/A,,Clear,350,2012-11-17 07:35:00
1:55 AM,33.8,32.0,93,30.35,10.0,Calm,Calm,-,N/A,,Clear,0,2012-11-17 07:55:00
2:15 AM,33.8,32.0,93,30.35,10.0,Calm,Calm,-,N/A,,Clear,0,2012-11-17 08:15:00
2:35 AM,32.0,32.0,100,30.36,10.0,Calm,Calm,-,N/A,,Clear,0,2012-11-17 08:35:00
2:55 AM,32.0,32.0,100,30.35,10.0,Calm,Calm,-,N/A,,Clear,0,2012-11-17 08:55:00
3:15 AM,32.0,32.0,100,30.35,10.0,Calm,Calm,-,N/A,,Clear,0,2012-11-17 09:15:00
3:35 AM,32.0,32.0,100,30.35,10.0,Calm,Calm,-,N/A,,Clear,0,2012-11-17 09:35:00
3:55 AM,32.0,32.0,100,30.35,10.0,Calm,Calm,-,N/A,,Clear,0,2012-11-17 09:55:00
4:15 AM,35.6,32.0,87,30.35,10.0,North,3.5,-,N/A,,Clear,360,2012-11-17 10:15:00
4:35 AM,35.6,32.0,87,30.35,10.0,Calm,Calm,-,N/A,,Clear,0,2012-11-17 10:35:00
4:55 AM,32.0,30.2,93,30.36,10.0,Calm,Calm,-,N/A,,Clear,0,2012-11-17 10:55:00
5:15 AM,32.0,32.0,100,30.37,10.0,Calm,Calm,-,N/A,,Clear,0,2012-11-17 11:15:00
5:55 AM,32.0,30.2,93,30.37,10.0,Calm,Calm,-,N/A,,Clear,0,2012-11-17 11:55:00
6:15 AM,32.0,30.2,93,30.38,10.0,NW,3.5,-,N/A,,Clear,320,2012-11-17 12:15:00
6:35 AM,33.8,32.0,93,30.39,10.0,Calm,Calm,-,N/A,,Clear,0,2012-11-17 12:35:00
6:55 AM,33.8,32.0,93,30.39,10.0,Calm,Calm,-,N/A,,Clear,0,2012-11-17 12:55:00
7:15 AM,35.6,32.0,87,30.40,10.0,Calm,Calm,-,N/A,,Clear,0,2012-11-17 13:15:00
7:35 AM,35.6,32.0,87,30.41,10.0,NW,3.5,-,N/A,,Clear,320,2012-11-17 13:35:00
7:55 AM,37.4,32.0,81,30.41,10.0,NW,3.5,-,N/A,,Clear,320,2012-11-17 13:55:00
8:15 AM,41.0,33.8,76,30.42,10.0,Calm,Calm,-,N/A,,Clear,0,2012-11-17 14:15:00
8:35 AM,44.6,35.6,71,30.42,10.0,Calm,Calm,-,N/A,,Clear,0,2012-11-17 14:35:00
8:55 AM,48.2,35.6,62,30.42,10.0,East,4.6,-,N/A,,Clear,90,2012-11-17 14:55:00
9:15 AM,50.0,33.8,54,30.42,10.0,ESE,4.6,-,N/A,,Clear,120,2012-11-17 15:15:00
9:35 AM,51.8,35.6,54,30.43,10.0,East,3.5,-,N/A,,Clear,90,2012-11-17 15:35:00
10:15 AM,53.6,35.6,51,30.43,10.0,SE,4.6,-,N/A,,Clear,130,2012-11-17 16:15:00
10:35 AM,55.4,37.4,51,30.43,10.0,Calm,Calm,-,N/A,,Clear,0,2012-11-17 16:35:00
11:55 AM,60.8,33.8,36,30.39,10.0,SE,8.1,-,N/A,,Clear,130,2012-11-17 17:55:00
12:15 PM,60.8,32.0,34,30.38,10.0,ESE,8.1,-,N/A,,Clear,110,2012-11-17 18:15:00
12:35 PM,60.8,33.8,36,30.38,10.0,SE,4.6,-,N/A,,Clear,130,2012-11-17 18:35:00
12:55 PM,60.8,33.8,36,30.36,10.0,Calm,Calm,-,N/A,,Clear,0,2012-11-17 18:55:00
1:15 PM,60.8,35.6,39,30.35,10.0,Calm,Calm,-,N/A,,Clear,0,2012-11-17 19:15:00
1:55 PM,62.6,33.8,34,30.34,10.0,NNE,5.8,-,N/A,,Clear,20,2012-11-17 19:55:00
2:15 PM,62.6,35.6,37,30.33,10.0,SE,4.6,-,N/A,,Clear,130,2012-11-17 20:15:00
2:55 PM,62.6,33.8,34,30.33,10.0,Calm,Calm,-,N/A,,Clear,0,2012-11-17 20:55:00
3:15 PM,62.6,33.8,34,30.33,10.0,ENE,4.6,-,N/A,,Clear,70,2012-11-17 21:15:00
3:35 PM,62.6,33.8,34,30.33,10.0,NE,4.6,-,N/A,,Clear,40,2012-11-17 21:35:00
4:15 PM,60.8,35.6,39,30.33,10.0,NE,3.5,-,N/A,,Clear,40,2012-11-17 22:15:00
4:35 PM,59.0,33.8,39,30.33,10.0,North,3.5,-,N/A,,Clear,10,2012-11-17 22:35:00
4:55 PM,53.6,35.6,51,30.34,10.0,Calm,Calm,-,N/A,,Clear,0,2012-11-17 22:55:00
5:15 PM,53.6,35.6,51,30.34,10.0,Calm,Calm,-,N/A,,Clear,0,2012-11-17 23:15:00
5:35 PM,50.0,37.4,62,30.34,10.0,Calm,Calm,-,N/A,,Clear,0,2012-11-17 23:35:00
5:55 PM,46.4,39.2,76,30.34,10.0,Calm,Calm,-,N/A,,Clear,0,2012-11-17 23:55:00
6:15 PM,46.4,39.2,76,30.34,10.0,Calm,Calm,-,N/A,,Clear,0,2012-11-18 00:15:00
6:35 PM,44.6,37.4,76,30.34,10.0,Calm,Calm,-,N/A,,Clear,0,2012-11-18 00:35:00
6:55 PM,42.8,37.4,81,30.34,10.0,Calm,Calm,-,N/A,,Clear,0,2012-11-18 00:55:00
7:15 PM,42.8,37.4,81,30.34,10.0,Calm,Calm,-,N/A,,Clear,0,2012-11-18 01:15:00
7:35 PM,41.0,35.6,81,30.35,10.0,Calm,Calm,-,N/A,,Clear,0,2012-11-18 01:35:00
7:55 PM,41.0,37.4,87,30.35,10.0,Calm,Calm,-,N/A,,Clear,0,2012-11-18 01:55:00
8:15 PM,41.0,37.4,87,30.35,10.0,Calm,Calm,-,N/A,,Clear,0,2012-11-18 02:15:00
8:35 PM,41.0,35.6,81,30.35,10.0,Calm,Calm,-,N/A,,Clear,0,2012-11-18 02:35:00
8:55 PM,39.2,35.6,87,30.35,10.0,NNW,3.5,-,N/A,,Clear,330,2012-11-18 02:55:00
9:15 PM,39.2,37.4,93,30.36,10.0,Calm,Calm,-,N/A,,Clear,0,2012-11-18 03:15:00
9:35 PM,39.2,35.6,87,30.37,10.0,Calm,Calm,-,N/A,,Clear,0,2012-11-18 03:35:00
9:55 PM,37.4,35.6,93,30.37,10.0,Calm,Calm,-,N/A,,Clear,0,2012-11-18 03:55:00
10:15 PM,37.4,35.6,93,30.37,10.0,Calm,Calm,-,N/A,,Clear,0,2012-11-18 04:15:00
10:35 PM,37.4,35.6,93,30.38,10.0,Calm,Calm,-,N/A,,Clear,0,2012-11-18 04:35:00
10:55 PM,35.6,35.6,100,30.37,10.0,Calm,Calm,-,N/A,,Clear,0,2012-11-18 04:55:00
11:35 PM,35.6,33.8,93,30.37,10.0,Calm,Calm,-,N/A,,Clear,0,2012-11-18 05:35:00
11:55 PM,35.6,33.8,93,30.37,10.0,Calm,Calm,-,N/A,,Clear,0,2012-11-18 05:55:00